Back to catalog

BREEZE-M DEB

LostHEO
NORAD 32489·DEBRIS·🇷🇺 Russia

Launched Feb 28, 2006 from Baikonur Cosmodrome

Loading…

Next Passes (next 24 hours)

TLE

StaleSource: Space-Track

Epoch: Nov 28, 2008, 15:22 UTC

1 32489U 06006AC  08333.64079042  .00005490  00000-0  16876+0 0  9992
2 32489  50.1223 116.8569 4569164 224.2940  87.6668  5.41280188 19744

Track BREEZE-M DEB in real time with AllMySat

Download on the App Store